Wind_Speed
24 22 19 23 27 25 25 26 25 23 22 21 21 22 23 24 24 23 23 22 23 24 24 24 24 24 25 25 25 26 24 21 19 18 17 17 17 16 17 17 17 17 17 16 15 13 14 16 16 15 14 15 17 20 20 17 16 20 26 27 26 26 29 30 32 37 40 42 42 41 41 42 44 46 48 48 47 44 40 35 30 28 29 31 31
19 16 13 19 25 23 22 23 24 24 23 23 23 24 25 25 24 23 23 23 23 24 24 24 23 24 26 26 26 25 24 22 21 20 19 19 19 19 19 20 20 20 20 20 19 17 16 17 18 18 18 18 19 21 23 21 17 20 26 29 31 35 37 36 37 41 43 43 42 43 44 44 45 47 47 46 43 39 34 31 30 31 31 31 28
16 15 15 20 22 19 17 18 20 21 22 24 25 24 24 23 22 23 23 23 24 24 22 21 20 20 24 27 28 27 25 24 23 22 21 21 21 22 22 22 23 23 24 24 24 22 21 20 21 22 23 23 23 24 25 27 27 26 29 34 38 41 42 42 43 44 44 45 45 46 46 46 46 46 45 42 37 33 31 31 33 31 27 23 20
14 15 18 19 19 18 17 17 17 16 18 20 19 20 22 22 22 23 23 24 25 23 21 21 21 20 24 28 30 29 28 27 25 25 24 24 23 24 24 25 25 26 27 27 27 26 26 25 25 26 28 29 29 29 29 30 32 32 34 38 41 42 44 45 47 47 47 47 48 48 48 48 47 45 41 37 33 31 32 33 30 24 18 14 14
15 17 18 18 18 19 20 19 17 16 17 15 12 15 19 21 23 24 25 25 24 24 25 27 26 24 25 27 29 29 29 29 28 28 28 27 27 26 27 27 28 29 29 30 30 30 30 29 30 30 31 32 33 33 33 33 34 34 35 37 39 42 44 46 47 48 48 47 47 48 48 47 45 40 36 33 32 33 33 28 21 15 12 13 14
17 18 19 19 20 21 22 22 19 18 19 12 11 17 20 24 27 27 27 27 27 29 29 29 27 26 25 25 26 27 28 29 29 30 30 31 31 31 31 31 32 32 32 32 32 33 33 33 34 34 34 34 34 35 34 34 35 35 35 36 39 42 43 45 46 46 46 45 45 45 45 42 38 35 33 34 34 32 26 18 13 12 14 16 18
17 18 20 21 22 23 24 25 22 21 20 14 14 22 27 29 30 29 29 30 30 30 28 27 27 26 25 25 26 27 29 29 30 31 31 33 34 35 36 35 35 34 33 34 34 34 34 35 35 35 35 35 35 36 36 36 36 37 38 40 42 44 46 46 45 45 44 44 43 41 38 34 33 34 35 35 31 24 17 13 13 16 19 21 23
17 18 19 20 21 23 24 26 25 24 24 22 23 28 30 30 29 28 29 29 29 28 27 27 27 27 27 27 28 28 29 30 30 31 31 32 33 35 36 36 35 34 34 33 33 33 33 33 34 34 34 34 35 36 37 38 38 39 40 42 44 46 47 46 44 43 42 41 38 34 31 31 33 34 33 28 21 16 14 15 17 20 24 26 28
18 18 18 19 19 21 22 24 24 24 24 25 26 26 27 27 27 27 27 26 26 26 26 27 27 28 28 29 29 29 29 30 30 30 31 31 32 32 33 34 34 34 33 32 32 32 32 33 34 34 35 35 36 37 37 38 38 39 41 43 45 46 45 43 42 40 37 34 32 30 31 32 32 30 24 18 15 15 16 19 22 25 28 30 31
18 18 18 18 18 18 19 20 21 21 22 22 23 23 23 23 23 23 23 22 22 23 24 25 26 28 29 30 31 31 31 30 29 29 29 30 31 31 32 32 33 34 34 34 34 35 35 35 36 37 37 38 39 39 38 38 39 40 43 45 45 44 41 39 36 33 30 29 29 31 33 32 27 21 16 15 16 18 21 24 27 30 32 33 33
17 18 17 17 17 17 17 18 18 19 19 20 20 20 21 21 21 21 20 19 20 21 23 25 27 28 30 31 31 31 32 31 30 29 29 29 29 30 30 31 32 33 35 36 37 38 38 39 40 40 41 41 41 40 39 40 40 42 43 43 41 39 35 32 29 26 26 27 30 32 30 25 20 16 15 17 20 23 26 30 32 34 35 35 36
17 17 17 17 17 17 17 17 18 19 19 20 20 20 20 20 20 19 19 20 21 23 25 27 29 30 31 31 30 31 31 31 31 30 30 29 29 29 30 30 31 33 35 36 37 39 39 40 40 40 41 40 40 39 39 39 40 40 39 37 34 31 27 25 24 25 27 29 31 29 25 20 17 17 19 21 24 27 31 34 36 37 38 39 40
19 19 18 18 17 17 17 17 17 18 18 18 19 19 19 19 19 20 20 22 23 25 27 28 29 30 30 30 30 31 31 31 31 31 31 31 30 30 30 31 32 33 34 35 36 36 36 36 36 36 36 36 36 36 36 36 35 34 31 28 25 23 22 22 25 27 29 31 29 25 21 19 20 21 23 25 28 31 34 37 39 40 41 42 43
21 20 20 20 19 18 17 17 17 16 16 16 16 18 19 20 20 21 22 23 24 25 27 28 30 31 32 32 33 33 33 32 32 32 32 32 31 31 31 32 32 32 32 33 33 33 32 32 31 31 32 32 32 31 30 29 27 25 22 21 20 20 22 25 27 29 30 30 27 24 22 22 24 25 27 30 32 35 38 40 42 43 45 46 46
23 23 23 22 21 20 18 17 17 17 17 17 18 20 21 22 23 23 22 23 24 24 25 25 26 28 30 33 35 35 34 33 32 32 32 32 32 32 31 30 30 29 29 29 29 29 28 27 26 27 27 27 26 25 23 21 18 17 18 19 20 22 24 26 28 29 29 29 27 26 26 27 28 29 31 33 36 38 40 42 44 46 48 50 50
27 27 26 26 24 22 20 19 19 18 19 20 21 23 25 25 24 22 22 22 21 18 16 16 18 19 22 25 28 30 30 30 30 30 30 30 30 30 29 28 27 27 27 26 26 26 25 24 23 22 22 21 20 18 17 15 15 16 18 20 21 23 25 26 27 28 28 28 28 29 30 31 33 34 35 37 39 41 42 44 46 49 51 52 52
30 30 29 27 25 24 22 21 20 19 19 20 21 22 24 23 21 20 19 16 11 8 11 16 18 19 18 18 19 21 23 24 25 25 25 25 25 25 25 24 24 24 24 24 24 24 23 22 20 19 17 16 15 14 14 15 16 17 19 20 22 23 25 26 27 28 28 28 29 31 32 34 36 38 39 40 42 43 45 47 49 51 53 53 53
32 31 29 27 25 24 22 21 21 20 19 18 18 18 19 18 16 15 13 6 2 8 15 20 23 23 20 17 14 13 14 16 16 16 17 18 19 20 20 21 22 22 23 22 22 21 20 19 18 16 13 13 14 15 15 16 18 19 20 22 23 25 26 28 29 29 29 29 30 31 33 35 37 38 40 42 45 47 49 50 51 53 53 53 55
33 31 29 27 25 23 21 21 21 19 17 16 15 15 16 15 13 11 6 2 2 8 15 19 24 25 20 17 14 10 7 8 8 9 10 12 14 15 16 17 18 19 20 20 19 18 17 16 16 15 13 13 14 16 18 19 20 22 23 25 26 28 29 30 30 31 31 31 32 33 34 36 38 40 43 45 48 50 51 53 53 54 54 56 58
31 29 27 25 23 21 19 19 20 18 15 13 13 13 14 13 11 10 5 1 4 9 14 19 24 26 21 17 16 12 8 7 7 8 9 10 12 13 14 15 16 16 17 17 16 15 14 14 14 14 14 14 16 17 19 21 23 24 26 27 29 30 31 32 33 33 34 34 34 35 37 39 41 43 45 47 49 51 52 54 55 56 58 59 60
25 24 23 21 20 20 18 18 18 16 15 13 13 12 11 12 11 10 7 4 8 10 15 19 22 25 24 22 23 21 18 17 15 15 14 14 14 13 14 15 15 15 15 15 15 14 13 13 13 14 15 16 18 20 22 24 25 26 27 28 30 32 33 34 34 34 34 35 36 37 39 40 42 44 47 49 50 52 53 55 57 60 62 63 64
22 21 20 19 19 19 18 18 17 17 17 15 14 13 11 12 11 9 9 8 10 12 17 18 16 19 21 22 25 25 24 24 23 21 20 19 18 18 17 17 16 16 15 15 15 15 14 14 15 16 17 19 20 22 24 26 27 28 29 30 32 33 34 35 35 35 35 36 37 38 39 41 43 45 47 49 51 53 55 58 61 63 65 66 67
20 20 20 19 18 18 18 19 19 19 19 17 16 14 12 11 10 9 12 12 9 13 19 17 12 13 16 16 20 23 24 25 25 25 23 21 20 20 21 21 20 19 18 17 16 16 16 16 17 18 19 21 23 25 27 29 30 31 32 33 34 34 35 36 36 36 36 37 38 39 41 42 44 45 47 49 52 55 58 61 63 65 67 69 70
19 18 18 18 18 18 18 19 20 20 21 20 18 15 12 13 15 16 15 13 11 15 20 17 11 11 14 14 16 19 22 25 28 27 24 23 22 21 22 23 23 23 22 21 20 19 18 18 19 21 22 24 25 27 29 31 33 34 35 35 35 36 37 37 37 37 38 39 40 41 42 44 46 47 49 52 54 58 61 63 66 68 69 71 73
17 16 16 17 17 17 17 18 19 21 22 21 19 16 12 13 17 18 16 13 15 18 21 19 13 12 15 16 16 19 22 26 27 25 24 25 24 23 23 24 24 25 24 24 24 24 24 23 23 24 25 27 28 30 31 33 34 35 36 37 37 38 38 38 38 39 40 41 42 43 45 47 49 51 53 56 58 60 62 65 68 70 72 73 74
14 14 14 14 15 16 16 17 19 21 23 22 20 17 12 11 12 12 13 14 17 20 21 19 15 14 15 16 17 20 23 25 24 23 25 25 23 23 24 24 25 26 26 27 28 30 31 31 31 31 32 32 32 33 34 35 36 37 37 38 38 38 39 39 39 40 42 43 44 46 48 50 52 54 56 58 60 62 65 67 69 71 73 75 76
13 13 13 13 15 16 17 17 19 22 23 22 20 18 14 14 12 11 12 15 18 20 19 18 16 13 13 16 19 21 23 22 20 22 25 25 22 22 23 23 26 28 29 31 33 34 36 37 37 37 38 38 38 37 37 37 37 38 38 38 38 38 39 40 41 43 44 46 47 48 50 52 55 57 59 60 63 65 67 69 71 73 75 77 79
13 13 14 14 15 16 17 18 19 22 23 22 20 19 18 17 17 18 19 20 21 21 19 19 19 17 16 19 19 20 20 19 20 24 25 22 20 21 22 25 29 32 35 37 37 37 38 39 40 41 42 43 42 42 41 40 40 40 40 39 39 39 40 41 43 45 47 48 49 51 53 55 57 59 61 64 66 68 70 72 74 76 78 80 81
13 14 14 13 13 14 15 17 19 21 23 22 20 19 19 19 20 22 23 23 23 22 21 22 23 22 20 20 19 18 18 19 22 26 24 19 20 24 27 30 33 35 36 38 37 37 39 41 42 43 45 46 46 46 45 44 44 44 43 42 41 41 42 43 45 47 48 50 51 54 56 58 60 62 64 66 68 71 73 75 77 79 81 82 82
12 13 13 11 11 11 11 13 15 18 21 21 19 17 16 16 19 21 21 21 22 22 22 23 23 21 20 20 20 20 20 21 24 26 25 22 22 27 31 33 33 33 35 36 37 39 42 43 43 45 48 49 49 49 48 47 47 47 46 45 44 45 45 46 47 48 50 52 54 56 58 60 62 64 66 68 71 73 75 77 79 81 83 82 80
11 10 10 10 9 8 8 9 10 13 16 17 16 15 15 15 16 17 18 18 20 22 24 23 21 19 18 21 24 24 24 24 25 26 27 24 25 30 34 35 34 34 36 38 41 43 44 45 46 48 49 50 50 50 50 49 48 47 47 46 47 47 48 48 50 51 53 55 57 58 60 62 64 67 70 72 74 76 77 79 81 81 81 79 75
9 9 8 9 8 7 7 7 7 9 12 14 15 16 16 16 16 16 18 20 22 24 25 23 21 19 19 22 25 26 27 26 24 25 25 26 29 34 37 37 37 38 39 42 43 44 45 47 49 49 48 49 50 50 50 49 48 47 47 47 48 48 49 50 51 53 54 56 58 60 62 65 68 71 73 75 77 79 80 81 81 79 76 73 70
8 8 8 8 7 7 6 6 6 8 10 11 12 13 13 13 14 15 17 20 22 23 24 23 22 21 21 23 25 26 27 27 25 24 25 28 31 34 37 40 41 41 42 43 45 46 48 49 49 47 47 48 49 49 49 48 48 48 48 48 48 49 49 50 51 53 55 57 60 62 65 68 71 73 75 77 80 81 82 81 78 75 71 68 66
7 7 7 7 7 7 6 6 7 9 9 10 10 10 10 11 13 14 16 17 19 20 22 23 23 23 23 25 26 26 26 27 27 26 28 30 32 36 40 43 44 45 45 46 48 49 51 50 48 46 47 48 48 48 48 47 47 48 48 48 48 48 49 50 52 54 57 59 62 65 68 70 72 74 77 79 81 81 79 77 74 70 67 65 63
7 7 7 7 7 6 6 7 8 10 11 11 11 11 12 12 14 16 17 18 20 21 23 23 23 23 23 23 24 26 27 26 26 26 28 32 34 37 40 42 45 47 48 48 49 50 49 47 45 45 47 48 48 47 47 47 47 47 46 46 46 47 48 51 53 56 58 61 64 67 69 70 73 76 78 80 79 77 75 71 69 66 64 62 59
7 8 8 7 7 7 7 7 9 10 12 13 15 15 15 15 17 18 20 21 22 23 24 24 21 20 20 22 24 27 28 27 26 27 29 33 36 38 41 43 45 46 46 47 47 47 47 46 45 46 48 47 46 46 46 46 45 45 44 44 45 47 50 52 55 57 60 63 65 67 69 71 75 77 79 78 76 73 70 67 64 62 59 57 54
7 8 8 8 8 7 7 8 10 11 13 14 16 17 18 19 20 21 22 23 24 25 25 25 23 20 21 23 25 27 28 29 29 30 32 34 37 39 42 44 44 44 44 45 46 48 47 47 46 47 47 46 45 45 44 44 43 42 43 44 46 49 52 54 57 59 62 63 65 67 71 74 77 77 76 74 72 69 66 63 61 58 55 52 50
6 8 8 8 8 8 8 9 11 12 14 15 17 18 19 20 21 23 24 24 25 26 26 27 27 26 26 27 26 25 26 29 30 32 33 35 37 40 42 43 43 42 43 45 47 47 46 46 48 47 45 44 43 43 42 41 41 42 43 45 48 51 53 55 58 60 62 64 66 70 73 76 75 74 72 70 67 64 61 59 56 53 51 50 48
6 7 8 8 8 9 10 11 13 14 16 17 18 19 20 20 22 23 24 25 26 27 27 28 30 30 29 30 27 24 25 29 31 32 33 35 37 39 39 39 39 41 43 45 46 44 45 47 47 45 43 42 41 40 40 40 40 42 44 47 50 51 54 56 58 60 62 66 70 73 75 74 73 71 68 65 62 59 56 54 51 49 48 47 46
6 7 8 9 10 11 11 12 14 15 17 19 20 21 21 21 22 24 25 26 26 26 26 27 28 27 27 28 28 27 29 31 32 32 32 34 35 35 35 36 37 39 41 42 42 43 45 45 43 41 40 39 38 38 39 39 41 43 46 48 50 52 54 56 58 60 64 69 73 74 74 72 69 67 64 61 58 55 52 49 47 45 45 45 43
6 7 8 9 10 11 11 12 13 14 16 18 19 20 20 21 22 24 25 26 25 24 24 24 24 23 23 24 26 27 28 29 29 30 30 32 33 33 33 35 36 38 38 40 41 42 42 40 39 38 37 36 36 37 38 39 42 44 46 48 50 52 54 56 59 63 68 72 74 73 71 68 65 62 59 56 54 51 48 46 44 43 43 43 41
6 7 7 8 9 11 12 12 13 14 15 16 17 18 18 18 20 22 24 24 22 21 20 19 17 17 18 19 22 24 25 25 25 26 27 29 31 32 33 34 35 35 36 37 37 37 36 35 35 35 34 34 35 36 38 40 42 44 46 48 50 53 55 58 62 67 71 73 72 70 67 63 60 57 54 52 49 47 45 44 43 43 42 42 40
8 8 8 9 10 12 13 14 15 15 16 15 15 15 16 16 17 19 20 19 16 13 12 12 12 13 14 17 20 22 23 24 24 24 25 27 29 30 31 31 32 32 32 32 32 31 32 32 32 32 32 33 35 37 39 41 42 44 46 49 51 54 57 61 66 70 72 72 69 66 62 59 56 54 51 47 45 45 44 44 43 42 42 41 38
9 10 11 12 12 13 14 15 16 17 16 15 15 15 15 14 12 12 13 12 8 5 6 7 9 11 13 16 19 21 20 21 23 24 24 26 26 26 26 26 27 27 27 27 28 28 29 29 30 31 33 34 35 37 39 41 43 45 47 49 52 56 60 64 69 72 72 69 66 62 59 57 55 53 49 45 43 43 44 44 43 42 41 39 36
11 12 12 12 11 13 15 18 19 19 18 17 16 15 13 10 6 4 3 7 7 4 4 6 9 11 14 16 17 18 17 17 18 19 19 20 21 21 22 23 23 24 25 25 26 27 28 29 31 33 34 36 37 39 40 42 44 46 48 51 54 58 62 67 70 71 69 66 63 59 57 56 55 52 49 46 44 43 44 43 42 41 40 38 35
12 12 12 11 11 12 16 19 20 19 17 15 14 13 9 6 6 8 7 3 7 6 5 7 10 12 14 14 14 15 16 16 16 17 18 19 21 22 22 23 24 25 26 26 27 28 30 31 33 35 36 38 39 41 42 44 45 47 49 53 56 60 64 68 69 68 66 63 60 58 57 58 56 54 51 48 47 46 45 43 41 40 39 36 33
12 12 11 12 13 14 17 20 19 17 15 13 13 11 8 6 7 11 13 8 6 7 7 8 10 11 11 10 10 12 15 16 18 21 22 24 26 26 26 26 26 27 28 28 29 30 32 34 36 38 39 40 41 42 44 45 46 48 51 54 58 62 65 67 67 65 63 60 58 57 59 59 57 55 53 51 50 49 47 44 42 39 37 35 32
12 12 12 13 15 18 20 20 18 16 14 14 13 11 8 7 7 7 10 10 7 7 10 11 12 12 11 9 9 12 16 18 20 23 25 28 30 30 29 28 29 29 30 30 31 32 34 36 38 39 40 41 42 43 44 45 47 50 53 56 59 62 65 66 64 62 60 58 58 58 60 59 57 55 54 54 52 50 47 44 41 38 35 33 30
12 12 12 14 17 20 21 20 18 17 16 14 12 11 8 8 7 6 6 7 8 11 14 15 15 15 13 10 9 13 18 20 21 22 24 27 30 31 29 27 28 30 31 31 32 33 34 36 38 41 43 43 42 43 45 46 48 51 53 56 60 63 64 63 62 60 59 58 59 60 61 61 59 57 57 56 54 51 48 44 40 36 34 31 28
12 12 13 16 19 21 21 21 21 20 17 14 11 10 8 6 6 7 10 10 11 15 17 18 17 16 13 10 9 13 17 17 16 18 22 25 27 28 27 26 26 28 30 30 31 32 34 36 40 43 45 45 44 44 45 47 49 51 53 57 60 62 62 61 59 58 58 58 60 62 63 63 61 60 60 59 56 52 49 44 39 36 32 30 27
12 13 15 18 20 21 21 21 22 21 18 14 11 9 7 5 7 10 12 13 14 17 19 19 19 17 15 13 12 14 15 14 14 16 20 23 25 25 24 24 24 26 28 29 31 32 35 38 41 43 44 45 45 45 46 47 49 51 54 57 60 61 60 58 58 58 58 58 60 61 63 63 63 62 62 61 58 54 50 45 40 35 32 29 27
Wind_Direction
268 268 277 283 280 281 283 283 281 279 275 271 275 285 292 295 296 296 297 298 299 300 304 306 309 311 309 305 299 296 298 300 298 295 290 287 287 289 290 290 290 292 292 293 297 304 309 310 306 299 289 280 279 283 286 295 304 294 290 293 292 288 287 290 292 293 295 300 302 303 303 302 302 302 302 302 303 303 303 304 304 304 305 306 305
270 268 263 259 264 276 286 288 284 278 274 275 281 287 288 291 292 293 294 296 298 300 303 306 311 311 305 298 293 292 295 295 291 290 289 287 285 285 285 285 284 286 287 288 289 290 293 295 296 296 292 281 273 274 280 286 283 275 275 275 275 281 286 286 287 290 295 300 302 302 302 302 301 302 302 302 303 304 304 304 304 306 306 306 306
266 262 250 244 252 267 275 277 279 282 283 283 286 288 287 289 292 293 295 297 299 299 301 305 305 300 292 289 290 293 295 293 289 287 287 287 285 285 284 282 282 282 283 284 284 285 286 287 288 291 294 292 285 279 277 278 275 272 272 272 276 283 286 287 289 293 296 298 299 300 301 301 301 301 302 303 303 304 303 304 305 307 308 309 313
261 257 255 251 252 255 251 254 268 282 287 284 285 285 281 282 285 289 292 295 296 297 300 304 300 292 286 285 289 292 293 293 290 287 286 287 286 285 284 283 282 282 281 282 282 284 285 286 286 287 289 291 291 289 285 281 278 276 276 278 281 284 287 290 292 293 294 296 297 299 299 300 301 301 302 302 302 303 303 305 306 307 309 317 326
261 259 260 257 251 247 246 253 263 269 272 278 291 291 283 282 286 288 290 294 294 295 301 305 304 299 293 289 290 291 292 292 291 289 286 285 285 284 283 283 282 282 282 282 284 285 286 286 286 285 286 287 289 290 288 285 282 281 281 283 285 287 290 292 292 292 293 295 297 298 299 300 301 301 301 301 301 302 304 304 303 304 311 321 328
263 261 262 259 251 246 249 255 257 255 263 280 302 294 288 293 297 296 294 295 295 296 301 304 305 304 300 296 294 293 293 294 292 290 287 285 284 283 283 282 282 281 282 283 285 286 287 287 286 286 285 285 286 287 287 286 285 285 287 288 290 292 293 293 293 293 294 295 297 298 299 300 301 301 300 300 301 302 301 297 293 300 309 316 320
262 260 258 256 252 248 249 254 253 249 255 269 283 284 287 294 299 299 297 297 297 299 301 303 304 304 302 301 299 298 297 296 293 290 288 286 284 283 282 282 281 281 282 283 284 284 285 285 286 287 288 288 288 287 285 284 285 286 288 291 293 294 294 294 294 294 295 296 298 299 300 300 300 300 300 300 300 297 290 284 290 301 309 313 315
261 260 258 256 254 251 249 253 254 253 255 260 266 275 283 290 295 298 299 300 300 301 302 302 303 303 302 302 302 302 302 299 296 293 290 289 288 286 284 282 281 281 282 283 284 284 285 286 287 288 289 291 291 290 288 285 284 286 288 290 292 292 292 292 293 294 296 297 298 300 300 301 301 300 300 298 293 285 282 289 298 305 310 312 313
262 264 265 265 262 258 255 254 255 255 256 259 265 273 281 288 293 297 300 301 302 303 303 304 304 304 303 303 302 302 303 302 299 296 293 291 291 289 286 283 282 282 282 284 286 287 287 288 288 288 288 289 290 291 291 289 287 287 288 289 290 290 290 291 293 295 297 298 300 302 302 303 302 300 296 290 284 283 290 299 305 308 311 313 313
267 271 274 275 273 269 264 261 260 260 261 265 270 276 281 285 289 292 296 299 302 305 306 307 307 307 306 304 303 302 301 301 300 297 294 291 291 290 288 285 283 283 283 284 286 287 286 286 285 285 286 287 287 288 289 289 288 287 288 288 288 289 290 292 294 296 297 300 303 305 305 303 300 294 287 284 289 296 302 307 311 314 315 316 316
275 279 282 284 284 280 275 272 270 269 269 270 272 274 277 280 284 289 293 298 303 305 305 305 305 304 303 303 302 301 300 299 298 296 293 291 290 289 288 286 285 284 283 284 285 285 284 283 282 282 282 284 285 286 287 287 287 286 286 287 288 289 291 293 294 297 300 303 305 305 302 297 290 285 284 290 297 303 309 313 316 317 317 317 318
273 276 279 281 281 281 278 274 272 271 271 271 271 272 275 279 284 289 294 296 298 298 298 299 299 298 297 297 296 296 295 295 294 292 290 290 289 287 285 285 284 284 283 283 284 284 284 283 282 282 282 284 285 285 285 285 284 284 285 287 289 291 293 296 299 302 305 306 306 302 295 286 281 282 287 293 300 306 311 315 317 318 318 317 317
264 266 269 271 274 274 273 271 269 268 268 270 272 275 278 283 287 290 293 294 295 295 295 294 293 292 291 291 290 290 290 289 288 287 286 286 285 284 284 283 283 283 284 284 285 286 287 286 286 286 286 285 284 283 282 282 283 284 286 288 290 293 296 300 304 305 306 306 304 296 285 278 279 284 289 295 303 308 311 314 316 317 317 317 316
259 261 264 268 271 271 271 271 269 269 270 272 276 282 286 288 290 292 295 297 296 294 292 292 291 290 288 287 285 284 284 284 284 283 282 281 282 282 282 282 283 285 286 288 288 289 289 289 289 287 285 283 281 281 281 282 284 287 291 294 296 300 303 305 306 306 306 304 297 287 277 275 280 285 291 299 305 308 310 313 314 315 316 315 314
259 261 264 267 268 268 270 271 272 273 276 279 283 287 288 288 289 292 294 295 294 295 297 300 300 297 291 286 282 279 278 278 280 280 280 279 279 280 281 283 286 287 288 288 289 289 289 289 288 285 284 284 284 285 285 287 291 296 300 302 304 306 306 306 306 306 306 300 290 282 277 277 281 286 293 300 304 306 309 311 313 313 314 313 312
258 259 261 262 262 265 269 272 272 274 278 283 288 290 290 290 290 290 291 294 298 305 316 325 326 318 304 290 282 278 275 274 276 278 277 277 278 280 282 285 287 288 288 289 289 290 290 290 290 289 290 291 291 292 293 296 301 303 303 304 304 305 305 306 308 308 305 298 289 283 281 282 284 288 293 298 301 304 307 309 310 311 311 310 310
258 258 259 259 261 266 272 275 275 276 280 285 289 292 293 293 290 289 293 300 312 344 9 8 360 349 333 311 291 281 277 274 275 277 278 279 281 283 286 289 289 289 289 290 291 292 293 294 294 295 296 297 297 298 299 301 303 303 302 303 304 306 307 309 310 310 306 300 293 289 287 287 287 289 292 296 299 302 305 306 307 307 307 307 308
258 259 259 261 265 268 272 275 276 278 281 283 286 287 288 287 287 293 297 299 13 34 30 22 12 2 351 339 318 294 285 281 279 282 285 287 289 290 293 294 294 293 292 293 294 296 298 299 300 302 304 305 304 304 304 303 303 303 303 305 307 308 309 309 309 308 306 302 298 296 294 292 292 292 293 296 299 301 303 304 304 304 305 306 308
258 260 262 266 268 267 268 272 275 275 274 277 276 272 275 277 280 290 287 210 60 25 27 23 15 7 359 355 347 327 312 309 303 304 303 302 302 303 305 304 301 300 299 300 301 301 302 302 303 306 307 307 305 303 303 303 304 305 305 307 308 308 308 306 306 305 304 302 300 298 297 296 295 295 296 298 300 301 302 302 303 304 305 306 307
259 262 264 266 267 266 265 269 273 268 263 267 266 267 273 267 269 281 268 251 353 7 19 22 23 18 14 15 14 8 7 4 356 351 341 332 330 326 324 320 316 314 311 308 306 303 299 297 298 301 301 301 299 299 300 302 304 305 306 308 309 309 309 308 306 305 304 303 301 300 299 298 298 298 299 300 301 301 302 302 304 305 306 307 307
261 264 264 264 264 264 265 267 267 260 257 261 262 271 271 252 262 278 257 291 338 347 2 13 25 29 29 35 38 36 36 35 31 27 21 15 8 359 350 341 335 331 325 317 311 303 297 293 291 293 295 295 297 298 300 302 303 305 307 309 309 310 310 310 308 307 305 304 303 301 301 300 300 301 301 301 302 302 303 304 306 307 307 307 307
263 265 265 265 263 262 263 263 260 255 253 257 261 266 259 249 266 279 255 279 326 337 344 355 15 26 26 32 37 37 34 33 31 28 26 25 23 20 14 5 356 348 339 329 320 310 301 294 288 288 289 291 294 297 298 300 302 303 304 304 305 307 309 310 310 310 308 307 305 303 303 302 302 303 303 303 303 303 304 305 306 307 307 307 308
263 264 265 267 264 261 260 258 255 252 249 254 259 258 256 266 287 292 271 272 301 334 344 349 359 11 12 15 21 23 22 19 16 14 14 15 17 18 18 16 11 5 357 347 336 325 314 304 295 291 289 290 291 293 294 296 298 299 299 299 300 303 307 310 311 311 310 309 308 306 305 305 305 305 304 303 303 304 305 306 307 308 308 308 308
264 265 268 270 268 263 259 254 250 248 248 252 254 251 261 289 304 306 295 280 283 314 335 340 338 347 350 347 352 2 8 4 1 4 7 9 11 12 14 15 13 11 7 1 355 346 335 322 311 303 298 294 292 291 292 292 293 294 295 297 299 301 305 308 310 311 311 310 309 308 307 306 306 305 304 304 305 306 307 307 308 308 308 307 307
270 272 273 273 270 262 255 249 245 241 245 251 250 248 266 297 306 309 307 296 292 306 322 327 323 325 332 333 336 346 355 355 355 0 3 4 9 11 11 13 13 13 12 10 7 3 355 346 336 327 318 310 304 300 298 297 297 297 298 299 300 302 304 306 308 310 310 309 308 307 307 306 306 306 306 307 307 307 307 307 307 307 307 307 307
276 276 272 270 268 260 250 244 238 234 239 247 248 249 265 289 301 318 324 314 307 310 317 320 317 316 325 334 337 340 347 349 351 357 357 358 5 9 9 12 14 14 13 10 8 4 359 354 348 343 337 330 323 316 312 308 306 304 303 302 302 303 304 306 308 309 310 309 308 308 308 308 308 308 308 308 307 307 307 307 306 306 307 307 307
279 277 272 269 267 261 251 244 238 234 237 242 247 252 261 270 279 302 319 319 316 314 314 318 320 322 333 340 340 341 344 342 343 349 351 355 3 7 7 8 6 2 358 354 351 350 350 348 345 342 340 337 333 328 323 319 315 311 308 307 306 305 306 307 308 310 310 310 310 310 310 310 310 309 308 307 307 307 307 306 307 307 308 308 307
280 280 279 276 271 262 255 249 242 238 239 241 247 258 263 266 277 289 294 301 310 308 303 308 313 320 334 339 337 337 337 334 335 340 345 354 3 360 355 351 346 342 340 338 338 340 343 343 340 338 336 335 333 330 326 322 319 316 314 312 310 309 309 309 309 310 310 310 311 311 311 311 310 309 309 308 308 308 308 309 309 309 309 308 308
281 282 282 279 273 264 258 253 245 240 241 243 250 262 267 270 284 293 292 296 302 299 295 299 304 309 319 326 325 327 330 333 336 338 340 346 346 338 334 331 330 331 332 331 332 335 337 337 335 333 332 330 329 326 323 319 317 316 314 313 312 311 310 310 310 310 310 311 311 312 312 311 310 310 309 309 309 310 311 311 310 310 309 309 308
284 282 280 274 271 269 263 257 248 241 240 244 254 267 274 279 288 295 296 296 295 293 295 301 304 305 308 311 312 316 323 330 334 336 337 334 328 326 326 324 324 327 328 326 326 327 329 329 329 328 327 326 325 323 320 317 315 314 313 312 310 310 310 310 310 310 311 312 312 313 312 312 311 311 310 311 312 312 312 311 311 311 311 310 309
288 282 278 274 272 274 274 267 257 247 243 247 259 272 280 288 296 297 295 293 293 295 300 305 308 308 303 302 306 309 316 324 330 335 337 333 325 323 324 322 322 323 323 321 319 320 322 324 324 324 323 322 322 322 320 317 315 315 315 313 311 310 310 311 311 312 312 313 314 314 314 313 312 313 313 314 314 313 312 312 313 312 312 311 311
292 288 285 285 282 280 282 281 274 267 263 266 273 279 282 290 297 293 287 289 296 302 306 307 307 306 303 302 306 307 310 317 324 328 328 324 320 319 318 318 318 317 316 315 313 314 317 319 321 320 320 320 321 321 321 319 318 317 316 314 313 312 312 312 313 314 315 316 316 315 315 315 315 316 316 315 315 314 315 315 314 314 313 313 313
297 295 294 295 295 293 292 287 280 278 280 283 286 287 289 292 293 289 286 291 298 303 308 309 308 308 306 307 309 309 310 312 313 311 310 310 311 311 311 311 311 310 309 309 309 310 312 315 317 317 318 320 321 320 321 320 319 317 316 315 314 313 313 314 315 317 317 317 317 316 317 318 318 318 316 316 316 317 317 316 316 316 316 316 315
305 299 299 302 303 300 294 282 272 270 274 278 283 288 290 290 291 292 293 296 301 304 307 310 315 319 317 314 312 310 310 310 307 305 303 303 303 304 305 306 305 305 305 304 305 307 310 313 314 315 318 321 320 320 320 319 318 317 316 315 315 315 316 317 318 318 318 318 318 319 320 319 318 317 317 318 318 318 317 317 317 318 317 316 314
304 295 296 299 297 294 288 277 268 266 267 268 269 274 280 286 291 295 297 299 303 305 307 311 320 326 323 314 308 305 306 305 304 304 304 303 302 303 303 304 304 304 303 303 304 306 311 314 315 316 319 320 319 318 318 318 318 317 317 317 318 318 319 319 318 319 319 319 320 320 319 318 318 319 319 319 319 318 319 319 319 319 317 316 314
289 283 283 283 281 281 281 279 276 273 272 270 269 269 272 279 288 295 298 299 302 304 307 311 318 320 311 300 297 300 303 302 299 299 300 301 302 303 303 304 304 303 303 303 306 309 313 315 316 317 318 317 316 317 317 317 318 318 319 320 320 320 319 319 319 320 321 321 321 320 319 320 321 321 320 320 320 320 321 320 320 319 317 316 315
282 280 277 274 274 276 280 285 286 283 281 280 278 276 276 279 285 292 296 299 302 305 307 308 308 307 303 300 298 298 298 298 297 297 296 297 298 299 300 302 303 303 303 304 306 309 312 314 315 316 316 315 315 317 318 319 320 321 322 322 321 321 321 321 322 322 322 321 321 321 322 323 323 322 322 322 322 322 322 321 320 320 319 318 318
290 287 284 281 281 282 284 286 288 288 288 287 286 285 284 285 288 292 296 300 303 305 305 303 301 300 300 302 302 297 294 294 295 295 294 294 295 296 297 300 301 301 300 302 305 308 310 312 314 314 314 314 316 318 320 322 323 323 323 323 322 322 322 323 323 323 322 322 323 325 325 325 324 324 324 324 323 323 323 322 321 322 322 322 321
295 299 300 298 297 295 293 290 289 288 288 289 290 291 292 293 295 296 299 302 304 305 304 301 300 299 297 298 300 299 296 295 294 293 291 291 292 294 296 297 298 298 299 302 305 307 308 310 312 313 313 315 318 321 324 325 325 326 325 324 323 323 324 324 324 324 324 326 327 327 327 327 327 326 326 325 325 325 324 323 323 324 325 324 324
307 315 312 307 304 301 297 292 288 286 285 286 288 291 294 298 299 298 298 301 305 306 305 301 299 297 296 297 301 303 303 303 301 297 294 294 295 296 297 298 299 300 302 303 304 305 306 308 311 313 315 319 323 326 327 328 328 327 325 323 324 325 325 325 326 327 328 329 329 329 329 329 329 328 328 328 327 326 326 325 326 327 328 327 326
312 310 306 303 302 301 298 296 295 294 292 290 289 290 293 296 298 298 298 300 302 302 299 296 295 295 298 303 308 310 312 313 308 301 297 294 294 296 299 301 302 302 302 303 304 305 308 311 314 316 321 326 329 330 330 330 328 326 325 325 326 327 327 328 329 330 331 331 331 331 331 331 330 331 331 330 329 328 329 329 330 331 331 330 328
295 293 292 297 303 306 308 310 310 309 307 302 297 294 295 298 300 299 296 294 294 292 291 294 299 305 312 316 319 322 324 321 311 301 295 291 292 295 300 302 303 303 305 306 308 311 314 318 321 325 329 333 334 333 332 330 328 327 327 328 329 329 330 331 332 333 333 333 334 333 333 333 333 334 334 332 331 332 333 335 335 335 334 333 330
284 287 295 306 313 316 318 318 317 317 314 308 302 301 304 306 302 294 288 285 284 286 295 309 318 320 324 327 327 328 328 323 315 306 301 299 300 302 303 306 309 311 313 315 318 322 325 327 330 333 336 336 336 335 332 330 330 330 330 331 332 333 333 334 334 335 335 336 335 335 335 335 337 338 337 336 336 338 340 340 340 339 337 334 331
290 299 308 317 324 330 334 333 330 327 322 314 308 306 307 303 293 287 294 301 307 313 317 327 331 327 327 331 332 331 326 320 316 312 308 308 310 312 316 320 324 326 327 330 332 335 337 338 338 339 339 339 338 336 333 333 333 333 334 335 335 335 336 336 336 337 337 338 337 337 338 340 342 341 340 341 343 345 345 344 343 341 339 336 333
299 306 311 318 332 346 349 343 337 330 323 317 310 302 297 286 259 239 298 317 318 320 321 329 334 334 333 333 332 333 332 329 327 327 325 326 331 335 339 341 341 342 344 346 347 348 347 345 344 343 343 341 339 336 335 335 335 336 337 337 337 338 338 338 338 339 339 340 340 341 344 346 347 346 346 347 350 351 350 348 345 342 340 338 335
300 303 307 318 334 347 346 339 333 326 319 312 300 290 286 270 218 176 163 238 294 294 292 309 321 330 335 331 323 326 337 347 356 0 358 356 356 355 354 354 355 357 357 357 356 355 352 349 347 346 344 341 338 337 337 337 338 338 339 339 339 339 340 340 340 341 341 342 344 346 350 352 352 352 353 354 355 355 354 351 348 345 342 340 338
300 302 312 326 338 344 341 335 329 323 314 302 289 284 281 258 217 183 172 191 265 291 288 290 299 316 331 327 312 318 335 349 3 9 8 6 4 360 358 1 2 3 2 0 359 357 353 351 349 346 343 340 339 339 338 339 340 340 340 340 341 341 341 342 342 343 344 346 349 352 355 355 356 357 359 360 359 358 356 353 350 347 345 343 342
302 310 324 337 343 342 337 331 325 320 311 296 287 286 272 241 230 207 188 191 220 278 296 297 295 302 317 325 325 332 339 349 1 5 4 4 4 360 358 1 4 4 3 2 360 357 355 353 351 348 344 341 340 340 340 341 341 341 341 341 342 343 343 344 345 346 348 350 354 357 358 358 359 1 3 4 3 1 358 355 352 349 348 347 346
307 316 331 342 343 338 332 328 325 320 310 297 291 291 274 238 236 267 262 228 230 262 284 294 295 298 309 323 334 338 341 350 1 3 358 358 360 360 0 3 5 5 5 4 2 360 358 357 354 352 350 347 344 343 342 342 342 342 342 343 343 344 345 346 348 349 351 354 358 360 359 359 1 4 7 7 6 3 0 357 354 352 351 351 352
308 320 335 342 340 334 329 328 326 321 312 304 301 303 290 249 231 261 272 265 261 266 276 288 293 295 301 311 328 339 343 350 0 360 352 347 346 349 354 359 1 0 360 359 357 355 353 352 351 351 352 351 348 345 343 343 343 343 343 344 345 346 347 349 350 353 355 358 1 1 0 0 3 6 8 9 7 6 3 360 357 357 357 356 358
310 326 339 342 338 332 327 325 325 323 317 313 316 322 313 268 242 249 254 259 270 277 280 285 290 292 289 287 300 324 339 350 358 356 349 344 339 337 339 344 348 349 349 350 349 348 347 346 346 348 350 351 349 347 345 344 344 344 344 345 347 348 350 351 354 356 359 1 2 1 1 1 3 7 9 9 8 7 5 3 2 2 2 2 3
Height
10984 10986 10990 10989 10984 10984 10986 10986 10987 10988 10988 10988 10988 10988 10988 10988 10988 10988 10988 10988 10988 10988 10988 10988 10987 10985 10983 10982 10982 10981 10980 10981 10980 10980 10979 10978 10978 10977 10976 10976 10975 10974 10974 10973 10973 10973 10972 10971 10970 10969 10968 10968 10967 10966 10966 10966 10964 10962 10961 10960 10958 10957 10956 10955 10954 10953 10951 10950 10948 10947 10946 10945 10944 10942 10940 10938 10936 10934 10932 10932 10931 10931 10929 10927 10926
10982 10984 10988 10985 10980 10982 10985 10984 10984 10985 10985 10986 10986 10986 10986 10986 10986 10986 10986 10987 10987 10987 10987 10988 10988 10986 10981 10978 10979 10979 10978 10978 10978 10977 10977 10976 10976 10975 10974 10974 10973 10972 10971 10971 10971 10971 10970 10969 10968 10967 10966 10965 10965 10964 10963 10963 10963 10961 10959 10957 10955 10953 10952 10952 10951 10949 10948 10946 10944 10943 10942 10940 10939 10937 10935 10933 10931 10930 10929 10927 10927 10927 10925 10924 10922
10980 10981 10982 10980 10980 10982 10984 10983 10982 10982 10983 10983 10983 10983 10983 10984 10984 10984 10985 10985 10985 10986 10987 10988 10991 10991 10986 10979 10976 10977 10976 10976 10975 10975 10974 10974 10973 10973 10972 10971 10970 10969 10968 10968 10968 10968 10967 10966 10965 10964 10963 10963 10962 10961 10961 10960 10960 10959 10957 10954 10952 10950 10949 10948 10947 10946 10944 10942 10941 10939 10937 10936 10934 10932 10930 10928 10927 10926 10925 10924 10923 10922 10921 10920 10919
10978 10979 10979 10979 10981 10981 10981 10981 10981 10982 10983 10982 10981 10980 10980 10981 10982 10983 10984 10984 10984 10985 10986 10987 10990 10991 10988 10981 10977 10976 10975 10973 10973 10972 10972 10971 10970 10970 10969 10968 10968 10967 10966 10965 10964 10964 10963 10963 10962 10961 10960 10959 10958 10957 10957 10957 10956 10955 10953 10951 10949 10947 10945 10944 10943 10941 10940 10938 10937 10935 10933 10931 10929 10927 10925 10924 10923 10922 10921 10919 10918 10918 10917 10917 10916
10976 10977 10977 10979 10980 10979 10979 10979 10980 10981 10982 10981 10979 10976 10977 10979 10980 10981 10982 10982 10983 10983 10983 10984 10985 10984 10983 10980 10976 10974 10973 10972 10971 10970 10969 10968 10968 10967 10966 10965 10964 10963 10962 10961 10961 10960 10959 10959 10958 10957 10957 10956 10955 10953 10953 10952 10951 10951 10949 10947 10945 10943 10942 10940 10938 10936 10935 10934 10933 10930 10928 10926 10924 10922 10921 10919 10918 10917 10916 10915 10915 10914 10914 10913 10913
10974 10975 10975 10976 10977 10977 10977 10978 10979 10980 10980 10979 10975 10973 10975 10977 10978 10979 10979 10979 10980 10980 10980 10980 10979 10978 10977 10975 10974 10972 10971 10970 10969 10968 10967 10966 10965 10964 10963 10962 10961 10960 10959 10958 10957 10956 10955 10954 10953 10953 10953 10952 10951 10950 10949 10948 10947 10946 10944 10943 10941 10939 10937 10935 10933 10932 10931 10930 10929 10927 10925 10922 10920 10918 10917 10915 10914 10913 10912 10911 10911 10911 10910 10910 10909
10971 10972 10973 10973 10973 10974 10974 10975 10976 10977 10978 10977 10974 10972 10974 10976 10976 10977 10977 10977 10977 10976 10976 10975 10975 10974 10973 10972 10970 10969 10968 10967 10966 10965 10964 10963 10961 10960 10959 10959 10958 10957 10955 10954 10953 10952 10950 10950 10949 10948 10948 10947 10947 10946 10945 10944 10943 10941 10940 10939 10937 10935 10933 10931 10929 10927 10926 10925 10924 10923 10921 10919 10917 10914 10912 10911 10909 10908 10908 10908 10908 10907 10907 10906 10906
10968 10968 10969 10970 10970 10970 10971 10971 10973 10974 10975 10975 10974 10973 10973 10974 10975 10975 10975 10974 10974 10973 10972 10972 10971 10970 10970 10969 10967 10966 10965 10963 10962 10961 10960 10959 10957 10956 10955 10955 10954 10953 10952 10951 10950 10948 10947 10946 10945 10944 10943 10942 10941 10941 10940 10939 10938 10937 10936 10934 10932 10930 10928 10926 10924 10923 10922 10920 10919 10918 10917 10915 10913 10911 10908 10907 10906 10905 10905 10905 10905 10904 10903 10902 10901
10965 10966 10967 10968 10968 10969 10969 10970 10970 10971 10972 10973 10973 10972 10972 10972 10972 10972 10972 10971 10971 10970 10969 10969 10968 10967 10966 10965 10964 10963 10961 10960 10958 10957 10956 10954 10953 10952 10951 10950 10949 10949 10948 10947 10946 10945 10943 10942 10941 10940 10939 10937 10936 10935 10935 10934 10933 10932 10931 10930 10928 10926 10924 10922 10920 10919 10917 10916 10915 10914 10913 10911 10909 10907 10905 10903 10903 10903 10902 10902 10901 10901 10900 10899 10897
10965 10965 10966 10967 10968 10968 10969 10969 10969 10969 10970 10970 10970 10970 10969 10969 10969 10969 10969 10969 10968 10967 10967 10966 10965 10964 10963 10962 10961 10959 10958 10956 10954 10953 10951 10950 10949 10948 10947 10946 10945 10945 10944 10943 10942 10940 10939 10938 10936 10935 10934 10933 10932 10931 10930 10929 10928 10927 10926 10925 10923 10921 10919 10918 10916 10915 10914 10912 10911 10910 10908 10907 10905 10903 10902 10901 10900 10899 10899 10898 10897 10896 10895 10894 10893
10965 10966 10966 10966 10967 10967 10967 10968 10968 10968 10968 10968 10968 10968 10967 10967 10966 10966 10966 10966 10965 10964 10964 10963 10962 10960 10959 10958 10957 10955 10953 10952 10950 10949 10948 10946 10945 10944 10943 10942 10941 10940 10939 10938 10936 10935 10934 10933 10932 10931 10929 10928 10927 10926 10925 10924 10924 10922 10921 10919 10918 10916 10915 10914 10913 10912 10911 10909 10908 10906 10904 10903 10902 10901 10900 10899 10897 10896 10895 10893 10892 10891 10889 10888 10887
10964 10964 10964 10964 10964 10965 10965 10966 10966 10967 10967 10967 10967 10967 10966 10965 10964 10963 10963 10963 10962 10961 10960 10959 10957 10956 10955 10953 10952 10950 10949 10947 10946 10945 10943 10942 10941 10939 10938 10937 10936 10935 10934 10933 10931 10930 10929 10928 10927 10926 10925 10923 10922 10921 10921 10920 10919 10917 10916 10915 10914 10912 10911 10910 10909 10908 10907 10905 10904 10902 10901 10900 10899 10898 10897 10896 10895 10893 10891 10889 10887 10886 10884 10882 10881
10960 10960 10961 10961 10962 10962 10962 10963 10963 10964 10964 10965 10965 10965 10964 10963 10962 10961 10960 10959 10958 10957 10956 10954 10953 10951 10949 10948 10947 10945 10944 10942 10941 10940 10939 10938 10936 10935 10934 10933 10932 10931 10929 10928 10927 10926 10924 10923 10922 10921 10920 10919 10918 10917 10917 10916 10915 10913 10912 10911 10910 10909 10908 10907 10906 10904 10903 10901 10899 10898 10897 10897 10896 10895 10894 10893 10891 10889 10887 10885 10882 10880 10879 10877 10875
10956 10957 10958 10959 10960 10960 10961 10961 10961 10962 10962 10962 10962 10962 10962 10961 10960 10959 10958 10957 10956 10954 10952 10950 10948 10946 10944 10942 10940 10939 10938 10937 10936 10935 10934 10933 10932 10931 10930 10929 10928 10927 10925 10924 10923 10922 10920 10919 10918 10917 10916 10915 10914 10913 10913 10912 10911 10910 10909 10908 10907 10906 10904 10903 10902 10900 10899 10897 10895 10895 10894 10893 10892 10891 10890 10889 10887 10885 10883 10880 10877 10875 10873 10871 10870
10954 10955 10956 10957 10957 10958 10959 10959 10960 10961 10961 10960 10960 10960 10959 10958 10957 10957 10956 10955 10953 10952 10950 10947 10944 10942 10939 10936 10934 10932 10932 10931 10930 10930 10929 10928 10928 10927 10926 10925 10924 10923 10922 10920 10919 10918 10917 10916 10915 10914 10913 10911 10910 10910 10909 10908 10907 10906 10905 10904 10903 10902 10901 10900 10899 10897 10895 10893 10892 10891 10890 10889 10888 10887 10886 10884 10882 10880 10878 10875 10872 10870 10867 10865 10863
10951 10952 10952 10953 10954 10955 10956 10957 10958 10959 10959 10959 10958 10957 10956 10955 10955 10954 10954 10952 10951 10949 10947 10944 10941 10937 10934 10931 10928 10927 10926 10926 10925 10925 10925 10925 10924 10924 10923 10923 10921 10920 10918 10917 10916 10915 10914 10913 10912 10911 10909 10908 10907 10906 10906 10905 10904 10904 10903 10902 10901 10900 10899 10897 10895 10893 10892 10890 10889 10887 10886 10885 10884 10882 10881 10879 10877 10875 10873 10870 10867 10865 10862 10859 10856
10947 10947 10948 10950 10952 10953 10954 10955 10956 10956 10956 10956 10955 10954 10954 10953 10952 10952 10951 10950 10948 10946 10943 10941 10938 10935 10931 10927 10924 10923 10922 10921 10921 10921 10921 10922 10922 10922 10921 10920 10919 10917 10915 10914 10913 10911 10910 10909 10908 10907 10907 10906 10905 10904 10904 10903 10902 10902 10901 10900 10898 10897 10896 10894 10892 10890 10888 10887 10885 10884 10882 10881 10879 10877 10875 10873 10871 10869 10867 10864 10862 10859 10856 10853 10849
10941 10942 10945 10948 10950 10951 10952 10952 10952 10953 10953 10952 10951 10951 10950 10950 10950 10949 10948 10947 10945 10942 10940 10938 10935 10932 10929 10925 10922 10920 10919 10919 10919 10919 10919 10919 10920 10919 10919 10917 10916 10914 10913 10911 10910 10908 10907 10906 10905 10905 10904 10904 10903 10902 10902 10901 10900 10899 10898 10897 10895 10894 10892 10891 10889 10887 10885 10883 10881 10880 10878 10876 10874 10871 10869 10867 10865 10863 10860 10858 10855 10853 10850 10847 10843
10936 10939 10943 10945 10947 10948 10949 10949 10949 10949 10950 10949 10948 10947 10946 10946 10947 10947 10946 10944 10942 10940 10937 10935 10933 10930 10927 10924 10921 10919 10918 10918 10917 10917 10917 10917 10917 10916 10915 10914 10913 10911 10910 10908 10907 10906 10905 10904 10903 10903 10902 10902 10901 10900 10899 10898 10897 10896 10895 10894 10892 10891 10889 10887 10885 10883 10881 10879 10877 10875 10873 10871 10868 10866 10863 10861 10858 10855 10853 10850 10847 10845 10842 10839 10836
10934 10938 10941 10943 10944 10944 10946 10947 10946 10946 10946 10945 10945 10944 10944 10944 10945 10945 10944 10942 10941 10940 10937 10934 10932 10929 10926 10924 10921 10919 10918 10917 10916 10916 10916 10915 10914 10913 10912 10911 10910 10908 10907 10905 10905 10904 10903 10902 10902 10901 10901 10900 10899 10898 10897 10896 10895 10893 10892 10890 10889 10887 10885 10883 10881 10879 10877 10875 10872 10870 10868 10866 10863 10860 10857 10854 10852 10848 10845 10842 10839 10836 10834 10831 10828
10933 10936 10938 10940 10941 10942 10943 10944 10943 10943 10943 10943 10943 10943 10943 10942 10943 10943 10942 10941 10940 10939 10937 10935 10932 10930 10927 10924 10922 10920 10919 10917 10916 10915 10914 10913 10912 10911 10910 10909 10908 10906 10905 10904 10903 10902 10901 10901 10900 10900 10899 10898 10897 10896 10894 10893 10892 10890 10888 10886 10884 10882 10880 10878 10876 10874 10872 10870 10868 10865 10863 10860 10857 10854 10851 10847 10844 10841 10838 10834 10830 10827 10824 10821 10818
10931 10933 10935 10937 10938 10939 10940 10940 10940 10940 10941 10941 10941 10941 10940 10939 10940 10940 10940 10939 10939 10938 10936 10935 10932 10930 10928 10926 10923 10921 10920 10918 10917 10915 10913 10912 10910 10909 10908 10907 10906 10905 10903 10902 10901 10900 10900 10899 10898 10898 10897 10896 10895 10893 10892 10890 10888 10886 10884 10882 10880 10878 10876 10874 10871 10869 10867 10865 10862 10860 10857 10855 10852 10849 10845 10841 10837 10834 10830 10827 10822 10818 10814 10810 10806
10928 10930 10932 10934 10935 10936 10936 10937 10937 10937 10938 10938 10938 10938 10938 10937 10937 10938 10938 10937 10937 10936 10935 10933 10931 10929 10928 10926 10923 10921 10920 10918 10917 10915 10913 10911 10909 10908 10907 10906 10905 10903 10902 10901 10900 10899 10898 10897 10896 10896 10895 10894 10892 10890 10889 10887 10885 10883 10880 10878 10876 10874 10871 10869 10866 10864 10862 10859 10857 10854 10851 10849 10846 10843 10840 10836 10831 10827 10823 10818 10814 10809 10805 10800 10796
10926 10928 10930 10931 10932 10933 10933 10933 10934 10934 10935 10935 10936 10936 10936 10936 10936 10936 10936 10936 10935 10934 10933 10931 10929 10928 10926 10925 10923 10921 10919 10918 10917 10916 10914 10911 10909 10908 10907 10906 10904 10903 10902 10901 10899 10898 10897 10896 10895 10894 10892 10891 10889 10887 10885 10883 10881 10879 10876 10874 10871 10869 10867 10864 10861 10859 10856 10853 10851 10848 10845 10842 10839 10836 10833 10829 10825 10820 10815 10810 10805 10800 10795 10791 10786
10924 10927 10928 10928 10929 10929 10930 10931 10931 10932 10931 10932 10933 10933 10934 10934 10935 10934 10934 10934 10934 10932 10931 10929 10927 10926 10924 10923 10921 10919 10917 10916 10916 10915 10914 10911 10909 10907 10906 10905 10903 10902 10901 10900 10899 10897 10896 10895 10894 10892 10890 10888 10886 10884 10882 10880 10877 10875 10872 10869 10867 10864 10862 10859 10856 10853 10851 10848 10845 10842 10839 10836 10832 10829 10825 10821 10816 10812 10807 10802 10797 10791 10786 10781 10776
10923 10925 10926 10926 10926 10926 10927 10928 10929 10929 10929 10929 10930 10931 10932 10933 10933 10933 10932 10932 10931 10930 10929 10927 10925 10924 10922 10920 10919 10917 10916 10915 10914 10914 10912 10910 10908 10906 10904 10903 10902 10901 10899 10898 10897 10896 10895 10894 10892 10890 10888 10886 10883 10881 10879 10876 10873 10870 10868 10865 10862 10859 10857 10854 10851 10848 10845 10842 10839 10835 10832 10828 10824 10821 10817 10813 10808 10804 10799 10794 10789 10783 10777 10772 10766
10922 10923 10924 10924 10924 10924 10925 10926 10926 10926 10926 10927 10927 10928 10930 10930 10931 10931 10931 10930 10929 10928 10926 10925 10923 10922 10920 10918 10917 10916 10914 10913 10912 10912 10910 10908 10906 10905 10903 10902 10900 10899 10898 10896 10895 10894 10893 10891 10889 10887 10885 10883 10880 10878 10875 10872 10869 10866 10863 10860 10858 10855 10852 10849 10846 10843 10839 10836 10832 10829 10825 10821 10817 10813 10809 10805 10800 10795 10790 10785 10780 10773 10767 10761 10755
10921 10921 10921 10922 10922 10922 10922 10923 10924 10924 10924 10925 10926 10927 10928 10928 10929 10929 10928 10928 10927 10926 10924 10922 10921 10920 10918 10917 10915 10914 10913 10912 10911 10910 10908 10906 10905 10903 10902 10900 10899 10897 10895 10894 10892 10891 10890 10888 10886 10884 10881 10879 10877 10874 10871 10868 10865 10862 10859 10856 10853 10850 10847 10844 10840 10837 10833 10830 10826 10822 10818 10814 10810 10805 10800 10795 10790 10785 10779 10773 10767 10761 10755 10749 10743
10919 10919 10919 10920 10920 10920 10920 10921 10922 10922 10922 10923 10924 10925 10926 10927 10927 10926 10926 10925 10924 10923 10921 10920 10918 10917 10916 10915 10914 10912 10911 10910 10909 10907 10906 10904 10903 10901 10899 10898 10896 10895 10893 10891 10890 10888 10887 10885 10883 10880 10878 10875 10873 10870 10867 10864 10860 10857 10854 10851 10848 10845 10842 10838 10835 10831 10827 10823 10819 10815 10811 10807 10802 10797 10792 10786 10781 10775 10769 10762 10755 10748 10742 10735 10730
10917 10917 10918 10919 10919 10919 10919 10919 10920 10921 10921 10922 10923 10924 10925 10925 10925 10924 10923 10922 10920 10919 10918 10917 10916 10915 10914 10912 10911 10910 10909 10908 10906 10905 10904 10901 10899 10898 10897 10895 10894 10892 10891 10889 10887 10886 10884 10882 10880 10877 10875 10872 10869 10866 10862 10859 10855 10852 10849 10846 10843 10840 10836 10833 10829 10825 10821 10817 10812 10808 10803 10798 10793 10788 10783 10777 10771 10765 10758 10751 10744 10737 10728 10721 10714
10916 10916 10917 10917 10918 10918 10918 10918 10918 10919 10919 10920 10921 10922 10922 10922 10922 10921 10920 10918 10917 10916 10915 10914 10913 10912 10910 10909 10908 10908 10907 10905 10903 10901 10900 10898 10896 10895 10894 10893 10892 10890 10888 10887 10885 10882 10880 10878 10876 10873 10871 10868 10865 10861 10857 10853 10850 10846 10843 10840 10836 10833 10830 10826 10822 10818 10814 10809 10805 10800 10795 10790 10784 10778 10772 10766 10760 10754 10747 10740 10732 10725 10716 10707 10699
10914 10915 10916 10916 10916 10917 10917 10917 10917 10917 10918 10919 10919 10919 10920 10920 10919 10918 10917 10915 10914 10913 10912 10911 10910 10909 10908 10907 10906 10905 10904 10902 10900 10898 10897 10895 10894 10892 10891 10890 10889 10887 10886 10884 10882 10879 10877 10875 10872 10870 10867 10864 10860 10856 10852 10848 10845 10841 10837 10834 10830 10827 10824 10820 10816 10811 10807 10802 10797 10792 10786 10780 10774 10767 10760 10754 10747 10741 10734 10726 10719 10711 10704 10695 10687
10914 10914 10915 10915 10916 10916 10916 10916 10916 10916 10917 10917 10917 10917 10917 10916 10915 10915 10914 10913 10912 10911 10910 10909 10909 10908 10907 10905 10904 10903 10901 10899 10897 10895 10894 10893 10891 10890 10888 10887 10885 10884 10882 10880 10878 10876 10873 10871 10869 10866 10863 10860 10856 10852 10847 10843 10840 10836 10832 10828 10825 10821 10817 10814 10809 10805 10800 10795 10789 10784 10778 10771 10764 10758 10750 10743 10736 10728 10720 10713 10705 10698 10691 10684 10678
10913 10914 10914 10915 10915 10915 10915 10915 10915 10915 10915 10915 10915 10915 10914 10913 10912 10911 10911 10910 10910 10908 10907 10907 10907 10906 10905 10904 10902 10900 10898 10896 10894 10892 10891 10889 10888 10887 10885 10883 10881 10879 10878 10877 10875 10872 10870 10868 10865 10862 10859 10855 10851 10847 10843 10839 10835 10831 10827 10824 10820 10816 10812 10807 10803 10798 10793 10788 10782 10776 10769 10763 10757 10750 10742 10734 10726 10718 10710 10702 10694 10687 10681 10674 10669
10912 10913 10913 10914 10914 10914 10914 10914 10913 10913 10913 10913 10913 10912 10910 10909 10908 10908 10908 10907 10907 10906 10905 10905 10905 10906 10905 10903 10900 10897 10894 10893 10891 10889 10887 10886 10885 10884 10882 10880 10877 10875 10873 10872 10871 10869 10866 10863 10860 10857 10854 10850 10846 10842 10838 10834 10831 10827 10823 10819 10815 10811 10807 10802 10798 10793 10788 10782 10775 10769 10763 10757 10750 10742 10733 10725 10717 10709 10701 10693 10685 10678 10672 10666 10660
10912 10912 10913 10913 10913 10913 10912 10912 10911 10911 10910 10910 10909 10908 10907 10907 10906 10905 10905 10905 10904 10903 10903 10903 10905 10908 10906 10900 10896 10893 10891 10889 10888 10886 10884 10882 10881 10880 10878 10876 10874 10871 10869 10867 10866 10864 10862 10859 10856 10853 10850 10847 10843 10838 10834 10830 10827 10823 10819 10815 10811 10807 10802 10798 10793 10788 10783 10777 10770 10763 10757 10750 10742 10733 10724 10715 10707 10699 10691 10684 10677 10670 10664 10659 10653
10912 10911 10912 10912 10911 10911 10911 10910 10909 10908 10907 10906 10906 10905 10905 10905 10904 10903 10902 10902 10902 10902 10901 10901 10903 10905 10902 10897 10893 10891 10888 10886 10885 10883 10881 10879 10878 10876 10874 10872 10870 10867 10865 10863 10861 10859 10857 10854 10852 10849 10846 10843 10838 10834 10830 10826 10823 10819 10815 10811 10807 10802 10798 10793 10787 10782 10776 10771 10765 10757 10749 10741 10733 10724 10715 10705 10697 10689 10682 10675 10669 10663 10657 10652 10647
10911 10910 10910 10910 10909 10909 10909 10908 10907 10906 10905 10904 10903 10903 10903 10903 10902 10901 10900 10900 10900 10900 10900 10899 10898 10898 10897 10894 10891 10889 10885 10883 10881 10879 10877 10876 10874 10872 10871 10868 10866 10863 10861 10859 10857 10855 10853 10850 10848 10845 10842 10838 10834 10830 10826 10823 10819 10815 10811 10807 10803 10798 10793 10788 10782 10776 10770 10764 10757 10750 10742 10733 10724 10715 10707 10698 10689 10682 10675 10668 10662 10656 10650 10644 10640
10909 10908 10908 10908 10907 10907 10906 10906 10905 10904 10903 10902 10902 10902 10902 10902 10901 10899 10897 10897 10897 10897 10896 10895 10893 10891 10890 10888 10887 10885 10882 10879 10877 10875 10873 10872 10870 10869 10867 10865 10862 10860 10857 10855 10853 10851 10849 10846 10844 10841 10838 10834 10830 10826 10823 10819 10816 10812 10808 10803 10798 10794 10788 10783 10777 10771 10764 10757 10749 10742 10734 10725 10716 10707 10698 10690 10682 10676 10669 10662 10656 10650 10644 10639 10634
10907 10906 10906 10905 10905 10904 10904 10904 10904 10903 10902 10901 10900 10900 10900 10900 10899 10896 10895 10894 10894 10893 10892 10889 10887 10886 10884 10882 10880 10878 10875 10873 10872 10870 10868 10867 10866 10865 10863 10861 10858 10856 10854 10851 10849 10847 10845 10843 10840 10837 10834 10830 10827 10823 10819 10816 10812 10808 10804 10799 10794 10788 10783 10778 10772 10766 10758 10751 10742 10734 10725 10716 10707 10699 10691 10683 10676 10669 10663 10657 10651 10646 10640 10635 10630
10904 10904 10904 10903 10902 10902 10902 10902 10902 10902 10901 10900 10899 10898 10898 10898 10896 10893 10891 10890 10889 10888 10886 10884 10882 10881 10879 10876 10874 10872 10870 10869 10867 10866 10864 10863 10862 10860 10859 10857 10855 10853 10850 10848 10846 10844 10841 10839 10836 10833 10830 10827 10823 10820 10816 10813 10809 10805 10800 10795 10789 10784 10778 10773 10767 10760 10752 10744 10735 10726 10718 10710 10701 10693 10685 10677 10670 10664 10657 10652 10646 10641 10636 10631 10626
10902 10902 10902 10901 10901 10900 10900 10900 10900 10900 10899 10897 10896 10895 10895 10895 10893 10889 10885 10884 10884 10882 10880 10878 10877 10876 10873 10871 10869 10868 10866 10865 10864 10862 10861 10860 10858 10857 10856 10854 10852 10850 10847 10845 10843 10840 10838 10835 10833 10830 10827 10824 10820 10817 10813 10809 10806 10802 10797 10791 10785 10780 10774 10767 10761 10754 10746 10738 10729 10720 10712 10704 10696 10688 10681 10673 10665 10659 10652 10647 10641 10636 10631 10626 10622
10900 10899 10899 10900 10900 10899 10899 10899 10899 10898 10897 10895 10892 10891 10890 10890 10889 10884 10878 10876 10877 10877 10875 10873 10872 10871 10869 10868 10866 10864 10863 10862 10860 10859 10858 10856 10855 10854 10852 10850 10848 10846 10844 10842 10840 10837 10835 10832 10830 10827 10824 10821 10818 10814 10811 10807 10803 10798 10792 10787 10782 10776 10769 10763 10756 10748 10740 10731 10723 10715 10707 10699 10692 10684 10677 10670 10662 10654 10648 10642 10637 10632 10627 10622 10619
10897 10897 10897 10898 10898 10899 10899 10898 10897 10896 10894 10891 10888 10886 10885 10885 10883 10878 10871 10869 10871 10872 10871 10869 10868 10866 10865 10864 10862 10861 10859 10858 10856 10855 10854 10852 10851 10849 10848 10846 10844 10843 10841 10839 10837 10835 10833 10831 10828 10825 10822 10819 10816 10812 10809 10804 10800 10794 10789 10784 10778 10772 10765 10758 10750 10742 10734 10726 10718 10710 10702 10694 10687 10680 10673 10666 10659 10651 10644 10638 10633 10628 10624 10620 10616
10896 10895 10896 10897 10897 10898 10897 10896 10895 10892 10889 10887 10884 10881 10880 10878 10875 10870 10866 10863 10863 10865 10866 10865 10863 10862 10861 10860 10859 10858 10857 10855 10854 10852 10850 10849 10847 10846 10845 10844 10843 10841 10839 10837 10835 10833 10832 10829 10827 10824 10820 10817 10814 10811 10807 10802 10797 10792 10787 10781 10775 10769 10762 10754 10746 10737 10729 10721 10713 10705 10697 10690 10682 10675 10668 10661 10654 10648 10642 10636 10631 10626 10621 10617 10614
10894 10894 10894 10895 10896 10896 10896 10894 10892 10889 10885 10882 10878 10875 10873 10869 10866 10864 10862 10858 10856 10858 10861 10861 10860 10859 10858 10858 10857 10857 10857 10855 10853 10850 10848 10847 10846 10845 10844 10844 10842 10839 10837 10835 10834 10832 10830 10828 10825 10822 10819 10816 10813 10809 10804 10799 10794 10789 10784 10778 10772 10765 10758 10750 10742 10734 10726 10718 10710 10702 10694 10686 10679 10671 10664 10657 10650 10644 10639 10633 10629 10624 10619 10615 10612
10892 10892 10893 10893 10894 10894 10893 10891 10888 10885 10881 10877 10873 10870 10867 10863 10861 10861 10860 10857 10855 10855 10857 10858 10858 10857 10857 10857 10857 10857 10856 10854 10852 10849 10848 10847 10846 10846 10845 10843 10840 10838 10836 10835 10833 10832 10830 10828 10825 10822 10819 10815 10811 10807 10802 10797 10792 10787 10781 10775 10769 10763 10756 10748 10740 10732 10723 10716 10708 10699 10692 10684 10677 10669 10661 10654 10647 10641 10636 10631 10626 10622 10618 10614 10610
10891 10891 10892 10892 10892 10892 10891 10888 10885 10881 10877 10873 10869 10866 10864 10862 10863 10863 10863 10862 10860 10858 10857 10857 10857 10856 10856 10856 10856 10856 10855 10853 10850 10849 10848 10848 10848 10847 10845 10843 10840 10838 10836 10835 10833 10832 10830 10827 10825 10822 10819 10815 10810 10805 10800 10795 10790 10785 10779 10773 10767 10760 10753 10745 10737 10729 10721 10714 10706 10698 10691 10685 10678 10670 10661 10653 10646 10640 10634 10630 10625 10621 10617 10613 10609
10889 10890 10890 10891 10891 10890 10888 10885 10881 10877 10873 10870 10867 10865 10864 10864 10866 10866 10866 10865 10863 10859 10857 10857 10857 10856 10857 10856 10855 10853 10853 10851 10850 10849 10849 10849 10849 10848 10845 10842 10840 10838 10837 10835 10833 10831 10829 10827 10825 10822 10818 10813 10808 10804 10798 10793 10788 10783 10777 10771 10765 10758 10751 10743 10736 10728 10720 10712 10705 10697 10691 10684 10677 10669 10660 10653 10646 10640 10635 10630 10625 10621 10617 10613 10610
10888 10889 10889 10889 10889 10888 10885 10881 10877 10873 10870 10867 10865 10864 10865 10866 10868 10867 10865 10863 10861 10858 10857 10856 10856 10856 10857 10856 10854 10852 10852 10851 10851 10851 10851 10849 10848 10847 10845 10842 10840 10838 10837 10835 10833 10832 10829 10827 10825 10821 10817 10812 10807 10802 10797 10792 10787 10782 10776 10770 10764 10757 10749 10742 10734 10727 10719 10712 10704 10697 10691 10684 10676 10668 10660 10653 10647 10641 10636 10631 10626 10622 10617 10613 10610
10887 10887 10887 10887 10887 10886 10883 10879 10874 10870 10868 10866 10865 10865 10865 10866 10866 10864 10862 10861 10860 10859 10858 10857 10856 10856 10856 10855 10854 10853 10852 10852 10851 10850 10849 10847 10846 10844 10843 10842 10840 10838 10837 10835 10834 10832 10829 10827 10823 10820 10815 10810 10805 10800 10796 10791 10786 10780 10775 10769 10763 10756 10749 10741 10734 10726 10719 10712 10705 10698 10691 10685 10677 10669 10662 10655 10649 10643 10638 10633 10628 10623 10618 10614 10611